GW1554 Weather Reports


Display with metric or nautical units.
time (UTC)temp
F
wind
direction
speed
MPH
gust
MPH
rain 1hr
in
rain 24hr
in
rain mn
in
humidity
%
barometer
mb
20260504011515 55 354 0.0 2.0 0.00 0.00 0.00 74 1018.1
20260504010005 56 286 0.0 0.0 0.00 0.00 0.00 81 1018.3
20260504004504 56 250 0.0 0.0 0.00 0.00 0.00 81 1018.5
20260504003003 58 118 0.0 4.0 0.00 0.00 0.00 70 1018.6
20260504001605 58 315 0.0 5.0 0.00 0.00 0.00 64 1018.5
20260504000104 56 312 0.0 0.0 0.00 0.00 0.00 68 1018.7
20260503234552 56 274 0.0 4.0 0.00 0.00 0.00 73 1018.9
20260503233054 56 322 0.0 2.0 0.00 0.00 0.00 84 1019.0
20260503231551 56 154 0.0 3.0 0.00 0.00 0.00 81 1019.2
20260503230054 56 30 0.0 3.0 0.00 0.00 0.00 69 1019.1
20260503224544 55 298 0.0 2.0 0.00 0.00 0.00 80 1019.2
20260503223043 56 274 0.0 1.0 0.00 0.00 0.00 85 1019.3
20260503221540 55 303 0.0 2.0 0.00 0.00 0.00 79 1019.2
20260503220038 55 287 0.0 2.0 0.00 0.00 0.00 85 1019.0
20260503214538 56 288 1.0 2.0 0.00 0.00 0.00 86 1018.8
20260503213037 56 120 0.0 1.0 0.00 0.00 0.00 88 1018.8
20260503211536 56 62 1.0 5.0 0.00 0.00 0.00 89 1018.9
20260503210035 56 72 2.0 6.0 0.00 0.00 0.00 89 1018.7
20260503204535 56 77 1.0 4.0 0.00 0.00 0.00 90 1018.8
20260503203040 55 11 0.0 0.0 0.00 0.00 0.00 89 1019.0
20260503201533 56 75 0.0 0.0 0.00 0.00 0.00 91 1019.2
20260503200032 57 95 0.0 1.0 0.00 0.00 0.00 90 1019.3
20260503194533 57 79 0.0 0.0 0.00 0.00 0.00 90 1019.4
20260503193031 57 82 0.0 0.0 0.00 0.00 0.00 89 1019.2
20260503191536 56 191 0.0 0.0 0.00 0.00 0.00 88 1019.3
20260503190033 56 210 0.0 0.0 0.00 0.00 0.00 87 1019.1
20260503184528 57 211 0.0 0.0 0.00 0.00 0.00 87 1019.0
20260503183028 57 244 0.0 2.0 0.00 0.00 0.00 86 1019.2
20260503181526 58 229 0.0 0.0 0.00 0.00 0.00 85 1019.0
20260503180037 58 131 0.0 2.0 0.00 0.00 0.00 85 1019.0
20260503174525 58 124 0.0 0.0 0.00 0.00 0.00 84 1019.0
20260503173025 59 139 1.0 5.0 0.00 0.00 0.00 84 1018.9
20260503171526 59 101 0.0 3.0 0.00 0.00 0.00 83 1018.9
20260503081543 66 147 2.0 7.0 0.00 0.00 0.00 53 1021.2
20260503071535 62 87 1.0 4.0 0.00 0.00 0.00 61 1021.2
20260503054523 55 10 3.0 7.0 0.00 0.00 0.00 62 1020.8
20260503053024 55 315 0.0 0.0 0.00 0.00 0.00 64 1020.9
20260503051518 55 333 0.0 2.0 0.00 0.00 0.00 63 1020.8
20260503050018 55 319 1.0 5.0 0.00 0.00 0.00 63 1020.7
20260503044518 55 325 1.0 3.0 0.00 0.00 0.00 64 1020.8
20260503043033 55 338 0.0 0.0 0.00 0.00 0.00 64 1020.8
20260503041516 55 276 0.0 0.0 0.00 0.00 0.00 64 1020.9
20260503040020 55 278 0.0 0.0 0.00 0.00 0.00 64 1020.9
20260503034514 55 9 0.0 0.0 0.00 0.00 0.00 59 1020.7
20260503033019 56 9 0.0 0.0 0.00 0.00 0.00 57 1020.6
20260503031511 56 115 0.0 0.0 0.00 0.00 0.00 56 1020.7
20260503030010 56 34 0.0 0.0 0.00 0.00 0.00 54 1020.6
20260503024521 56 271 1.0 3.0 0.00 0.00 0.00 56 1020.9
20260503023007 57 264 1.0 3.0 0.00 0.00 0.00 54 1021.0
20260503021518 58 325 0.0 3.0 0.00 0.00 0.00 49 1021.0
20260503020005 57 1 0.0 1.0 0.00 0.00 0.00 50 1021.0
20260503014504 58 335 0.0 0.0 0.00 0.00 0.00 49 1021.0
20260503013006 58 18 1.0 3.0 0.00 0.00 0.00 50 1021.1